Weather in Azim-Sirma

Russia / Chuvash Republic     55°36′56″N   46°44′42″E
temp.,
°C
wind,
m/s
gust,
m/s
humid.,
%
clouds,
%
prec.,
mm/h
press.,
hPa
HPBL,
m
6 may, thu
thu600:00+4sw228550 0.0 101232
03:00+5sw3691100 0.1 1012171
06:00+7ssw389274 0.1 1013259
09:00+11sw36788 0.1 1014417
12:00+17sw585272 0.0 10141838
15:00+18sw685096 0.0 10142101
18:00+14ssw51066100 0.0 1014614
21:00+10s31279100 0.0 1014263
7 may, fri
fri700:00+9s31282100 0.0 1014266
03:00+9s41377100 0.0 1013326
06:00+10s51371100 0.0 1013438
09:00+11s51368100 0.0 1013525
12:00+13sw61168100 0.1 10141360
15:00+10nw5778100 0.3 1016497
18:00+9w248868 0.3 1017287
21:00+6s1192100 0.3 101810
8 may, sat
sat800:00+6ssw119241 0.0 101911
03:00+5se11900 0.0 101910
06:00+7ese23833 0.0 1019112
09:00+13se45635 0.0 1017899
12:00+17sse56509 0.0 10151809
15:00+18ssw684897 0.0 10141626
18:00+16sse3765100 0.0 1012221
21:00+13sse5147427 0.0 1012372
9 may, sun
sun900:00+15sse6166074 0.0 1011666
03:00+13s51575100 0.1 1011711
06:00+13s51476100 0.3 1011640
09:00+13wnw5579100 0.3 1013618
12:00+9nw3592100 1.8 1015370
15:00+8nw3689100 3.8 1018352
18:00+7nnw3694100 1.1 1019425
21:00+7nnw2795100 1.9 1021422
10 may, mon
mon1000:00+7n3994100 1.1 1022475
03:00+7n2697100 1.9 1024318
06:00+7n4996100 2.1 1025459
09:00+8ne3892100 3.3 1027547
12:00+8ene2688100 0.3 1028525
15:00+8e138890 0.4 1028193
18:00+10se11817 0.0 1028157
21:00+6ese119035 0.0 103010